User: anonymous   Login
Location: Northcutt
(34.7304°N, 84.4305°W)
Time: 14:20:18
(UTC+00:00)
Language:

Tiros 1 - Orbit

View from above orbital plane
View from above orbital plane
View from above satellite
View from above satellite

Ground track
Ground track

The orbit data is extracted from the following two-line orbital elements,

1 00029U 60002B   22275.84801148  .00000579  00000-0  11593-3 0  9994
2 00029  48.3801 315.9184 0024362 216.9570 142.9664 14.74749393342119
Epoch (UTC): 02 October 2022 20:21:08
Eccentricity: 0.0024362
inclination: 48.3801°
perigee height: 629 km
apogee height: 663 km
right ascension of ascending node: 315.9184°
argument of perigee: 216.9570°
revolutions per day: 14.74749393
mean anomaly at epoch: 142.9664°
orbit number at epoch: 34211

The dashed part of the orbit path shows where the satellite is in the earth's shadow,  

DLR